Location: Unspecified
(32.1028°N, 0.0000°E)
Time: 21:07:57
(UTC+00:00)

NOAA 11 - Visible Passes

Search period start: 04 April 2026 00:00
Search period end: 14 April 2026 00:00
Orbit: 831 x 848 km, 98.6° (Epoch: 29 March)

Date Brightness Start Highest point End Pass type
(mag) Time Alt. Az. Time Alt. Az. Time Alt. Az.
4 Apr 6.3 02:40:30 10° N 02:41:55 18° N 02:41:55 18° N visible
5 Apr 6.3 02:25:17 10° N 02:26:44 19° N 02:26:44 19° N visible
6 Apr 6.5 02:10:10 10° NNE 02:11:33 19° NNE 02:11:33 19° NNE visible
7 Apr 6.6 01:55:10 10° NNE 01:56:23 17° NNE 01:56:23 17° NNE visible
7 Apr 6.3 03:37:25 10° NNW 03:38:09 12° NW 03:38:09 12° NW visible
8 Apr 6.8 01:40:17 10° NNE 01:41:11 15° NE 01:41:11 15° NE visible
8 Apr 6.2 03:21:31 10° NNW 03:22:58 16° NNW 03:22:58 16° NNW visible
9 Apr 7.0 01:25:34 10° NE 01:26:01 12° NE 01:26:01 12° NE visible
9 Apr 6.0 03:05:55 10° N 03:07:47 19° NNW 03:07:47 19° NNW visible
10 Apr 5.9 02:50:30 10° N 02:52:36 22° NNW 02:52:36 22° NNW visible
11 Apr 5.9 02:35:12 10° N 02:37:25 25° N 02:37:25 25° N visible
12 Apr 6.0 02:20:01 10° N 02:22:14 26° N 02:22:14 26° N visible
13 Apr 6.1 02:04:56 10° NNE 02:07:02 24° NNE 02:07:02 24° NNE visible
13 Apr 6.3 03:48:13 10° NW 03:48:49 11° NW 03:48:49 11° NW visible
